Location: Unnamed
(45.3580°N, 90.2245°W)
Time: 17:45:29
(UTC-05:00)

Envisat - Pass Details

Date: 12 March 2021
Orbit: 764 x 766 km, 98.1° (Epoch: 12 April)

Event Time Altitude Azimuth Distance (km) Brightness Sun altitude
Rises 05:04:39 0° 20° (NNE) 3,242 6.7 -13.8°
Reaches altitude 10° 05:07:08 10° 29° (NNE) 2,311 6.0 -13.3°
Maximum altitude 05:11:51 37° 97° (E) 1,171 4.6 -12.5°
Drops below altitude 10° 05:16:31 10° 164° (SSE) 2,294 5.6 -11.7°
Sets 05:18:58 0° 173° (S) 3,215 6.2 -11.3°
